Time,TemperatureF,DewpointF,PressureIn,WindDirection,WindDirectionDegrees,WindSpeedMPH,WindSpeedGustMPH,Humidity,HourlyPrecipIn,Conditions,Clouds,dailyrainin,SoftwareType,DateUTC
2013-06-05 00:01:00,77.0,66.9,29.88,South,179,5.0,10.0,71,0.00,,CLR,0.00,VWS V14.01,2013-06-05 05:01:00,
2013-06-05 00:07:00,76.8,67.1,29.88,SSE,167,8.0,8.0,72,0.00,,CLR,0.00,VWS V14.01,2013-06-05 05:07:00,
2013-06-05 00:12:00,76.7,67.4,29.88,SE,130,0.0,8.0,73,0.00,,CLR,0.00,VWS V14.01,2013-06-05 05:12:00,
2013-06-05 00:17:00,76.5,67.6,29.88,SE,143,0.0,3.0,74,0.00,,CLR,0.00,VWS V14.01,2013-06-05 05:17:00,
2013-06-05 00:22:00,76.3,67.4,29.89,East,90,3.0,10.0,74,0.00,,CLR,0.00,VWS V14.01,2013-06-05 05:22:00,
2013-06-05 00:27:00,76.1,67.6,29.89,ESE,118,0.0,1.0,75,0.00,,CLR,0.00,VWS V14.01,2013-06-05 05:27:00,
2013-06-05 00:32:00,76.0,67.5,29.89,SSE,166,5.0,5.0,75,0.00,,CLR,0.00,VWS V14.01,2013-06-05 05:32:00,
2013-06-05 00:37:00,75.8,67.7,29.89,SSE,163,5.0,9.0,76,0.00,,CLR,0.00,VWS V14.01,2013-06-05 05:37:00,
2013-06-05 00:42:00,75.8,67.7,29.89,South,188,0.0,9.0,76,0.00,,CLR,0.00,VWS V14.01,2013-06-05 05:42:00,
2013-06-05 00:47:00,75.6,67.9,29.89,ESE,117,0.0,4.0,77,0.00,,CLR,0.00,VWS V14.01,2013-06-05 05:47:00,
2013-06-05 00:52:00,75.4,67.7,29.89,South,171,0.0,6.0,77,0.00,,CLR,0.00,VWS V14.01,2013-06-05 05:52:00,
2013-06-05 00:57:00,75.4,68.1,29.89,SSE,153,0.0,6.0,78,0.00,,CLR,0.00,VWS V14.01,2013-06-05 05:57:00,
2013-06-05 01:02:00,75.3,68.0,29.89,SE,139,5.0,6.0,78,0.00,,CLR,0.00,VWS V14.01,2013-06-05 06:02:00,
2013-06-05 01:07:00,75.3,68.0,29.89,SSE,159,0.0,0.0,78,0.00,,CLR,0.00,VWS V14.01,2013-06-05 06:07:00,
2013-06-05 01:12:00,75.1,67.8,29.89,South,171,0.0,0.0,78,0.00,,CLR,0.00,VWS V14.01,2013-06-05 06:12:00,
2013-06-05 01:17:00,74.9,67.9,29.89,SE,140,0.0,4.0,79,0.00,,CLR,0.00,VWS V14.01,2013-06-05 06:17:00,
2013-06-05 01:22:00,74.9,67.9,29.89,SE,140,0.0,4.0,79,0.00,,CLR,0.00,VWS V14.01,2013-06-05 06:22:00,
2013-06-05 01:27:00,74.7,67.8,29.89,SE,140,0.0,0.0,79,0.00,,CLR,0.00,VWS V14.01,2013-06-05 06:27:00,
2013-06-05 01:32:00,74.6,67.7,29.89,SE,140,0.0,0.0,79,0.00,,CLR,0.00,VWS V14.01,2013-06-05 06:32:00,
2013-06-05 01:37:00,74.4,67.8,29.89,SE,126,0.0,0.0,80,0.00,,CLR,0.00,VWS V14.01,2013-06-05 06:37:00,
2013-06-05 01:42:00,74.2,67.6,29.89,SE,144,0.0,0.0,80,0.00,,CLR,0.00,VWS V14.01,2013-06-05 06:42:00,
2013-06-05 01:47:00,74.0,67.8,29.89,SE,145,0.0,0.0,81,0.00,,CLR,0.00,VWS V14.01,2013-06-05 06:47:00,
2013-06-05 01:52:00,74.0,67.8,29.89,SE,144,0.0,0.0,81,0.00,,CLR,0.00,VWS V14.01,2013-06-05 06:52:00,
2013-06-05 01:57:00,73.9,67.7,29.89,SE,144,0.0,0.0,81,0.00,,CLR,0.00,VWS V14.01,2013-06-05 06:57:00,
2013-06-05 02:02:00,73.9,67.7,29.89,SE,144,0.0,0.0,81,0.00,,CLR,0.00,VWS V14.01,2013-06-05 07:02:00,
2013-06-05 02:07:00,73.7,67.9,29.89,SE,144,0.0,0.0,82,0.00,,CLR,0.00,VWS V14.01,2013-06-05 07:07:00,
2013-06-05 02:12:00,73.5,67.7,29.89,SE,144,0.0,0.0,82,0.00,,CLR,0.00,VWS V14.01,2013-06-05 07:12:00,
2013-06-05 02:17:00,73.5,67.7,29.89,SE,144,0.0,0.0,82,0.00,,CLR,0.00,VWS V14.01,2013-06-05 07:17:00,
2013-06-05 02:22:00,73.3,67.8,29.89,SE,144,0.0,0.0,83,0.00,,CLR,0.00,VWS V14.01,2013-06-05 07:22:00,
2013-06-05 02:27:00,73.3,67.8,29.89,SE,144,0.0,0.0,83,0.00,,CLR,0.00,VWS V14.01,2013-06-05 07:27:00,
2013-06-05 02:32:00,73.2,67.7,29.89,SE,144,0.0,0.0,83,0.00,,CLR,0.00,VWS V14.01,2013-06-05 07:32:00,
2013-06-05 02:37:00,73.0,67.5,29.88,SE,126,0.0,3.0,83,0.00,,CLR,0.00,VWS V14.01,2013-06-05 07:37:00,
2013-06-05 02:42:00,73.0,67.9,29.88,SE,126,0.0,3.0,84,0.00,,CLR,0.00,VWS V14.01,2013-06-05 07:42:00,
2013-06-05 02:47:00,72.8,67.7,29.88,SE,126,0.0,0.0,84,0.00,,CLR,0.00,VWS V14.01,2013-06-05 07:47:00,
2013-06-05 02:52:00,72.7,67.6,29.87,SE,126,0.0,0.0,84,0.00,,CLR,0.00,VWS V14.01,2013-06-05 07:52:00,
2013-06-05 02:57:00,72.5,67.4,29.87,SE,126,0.0,0.0,84,0.00,,CLR,0.00,VWS V14.01,2013-06-05 07:57:00,
2013-06-05 03:02:00,72.5,67.7,29.87,SE,126,0.0,0.0,85,0.00,,CLR,0.00,VWS V14.01,2013-06-05 08:02:00,
2013-06-05 03:07:00,72.5,67.7,29.87,SE,126,0.0,0.0,85,0.00,,CLR,0.00,VWS V14.01,2013-06-05 08:07:00,
2013-06-05 03:12:00,72.3,67.5,29.87,SE,126,0.0,0.0,85,0.00,,CLR,0.00,VWS V14.01,2013-06-05 08:12:00,
2013-06-05 03:17:00,72.3,67.5,29.87,SE,126,0.0,0.0,85,0.00,,CLR,0.00,VWS V14.01,2013-06-05 08:17:00,
2013-06-05 03:22:00,72.3,67.5,29.87,SE,126,0.0,0.0,85,0.00,,CLR,0.00,VWS V14.01,2013-06-05 08:22:00,
2013-06-05 03:27:00,72.3,67.9,29.87,SE,126,0.0,0.0,86,0.00,,CLR,0.00,VWS V14.01,2013-06-05 08:27:00,
2013-06-05 03:32:00,72.1,67.7,29.87,SE,125,0.0,0.0,86,0.00,,CLR,0.00,VWS V14.01,2013-06-05 08:32:00,
2013-06-05 03:37:00,72.1,67.7,29.86,SE,125,0.0,0.0,86,0.00,,CLR,0.00,VWS V14.01,2013-06-05 08:37:00,
2013-06-05 03:42:00,72.1,67.7,29.86,SE,125,0.0,0.0,86,0.00,,CLR,0.00,VWS V14.01,2013-06-05 08:42:00,
2013-06-05 03:47:00,72.0,67.6,29.86,SE,125,0.0,0.0,86,0.00,,CLR,0.00,VWS V14.01,2013-06-05 08:47:00,
2013-06-05 03:52:00,72.0,67.6,29.86,SE,125,0.0,0.0,86,0.00,,CLR,0.00,VWS V14.01,2013-06-05 08:52:00,
2013-06-05 03:57:00,72.0,67.9,29.86,SE,125,0.0,0.0,87,0.00,,FEW017,0.00,VWS V14.01,2013-06-05 08:57:00,
2013-06-05 04:02:00,71.8,67.7,29.86,SE,125,0.0,0.0,87,0.00,,FEW017,0.00,VWS V14.01,2013-06-05 09:02:00,
2013-06-05 04:07:00,71.8,67.7,29.87,SE,125,0.0,0.0,87,0.00,,FEW017,0.00,VWS V14.01,2013-06-05 09:07:00,
2013-06-05 04:12:00,71.8,67.7,29.87,SE,125,0.0,0.0,87,0.00,,FEW017,0.00,VWS V14.01,2013-06-05 09:12:00,
2013-06-05 04:17:00,71.6,67.5,29.87,SE,125,0.0,0.0,87,0.00,,FEW017,0.00,VWS V14.01,2013-06-05 09:17:00,
2013-06-05 04:22:00,71.5,67.4,29.87,SE,125,0.0,0.0,87,0.00,,FEW017,0.00,VWS V14.01,2013-06-05 09:22:00,
2013-06-05 04:27:00,71.3,67.2,29.87,SE,125,0.0,0.0,87,0.00,,FEW017,0.00,VWS V14.01,2013-06-05 09:27:00,
2013-06-05 04:32:00,71.5,67.4,29.87,SE,125,0.0,0.0,87,0.00,,FEW017,0.00,VWS V14.01,2013-06-05 09:32:00,
2013-06-05 04:37:00,71.3,67.2,29.87,SE,125,0.0,0.0,87,0.00,,FEW017,0.00,VWS V14.01,2013-06-05 09:37:00,
2013-06-05 04:42:00,71.1,67.0,29.87,SE,125,0.0,0.0,87,0.00,,FEW017,0.00,VWS V14.01,2013-06-05 09:42:00,
2013-06-05 04:47:00,70.9,67.2,29.87,SE,125,0.0,0.0,88,0.00,,FEW017,0.00,VWS V14.01,2013-06-05 09:47:00,
2013-06-05 04:52:00,70.8,67.1,29.87,SE,125,0.0,0.0,88,0.00,,FEW017,0.00,VWS V14.01,2013-06-05 09:52:00,
2013-06-05 04:57:00,70.6,66.9,29.87,SE,125,0.0,0.0,88,0.00,,SCT019,0.00,VWS V14.01,2013-06-05 09:57:00,
2013-06-05 05:02:00,70.8,67.1,29.87,SE,125,0.0,0.0,88,0.00,,SCT019,0.00,VWS V14.01,2013-06-05 10:02:00,
2013-06-05 05:07:00,70.8,67.1,29.87,SE,125,0.0,0.0,88,0.00,,SCT019,0.00,VWS V14.01,2013-06-05 10:07:00,
2013-06-05 05:12:00,70.8,67.4,29.87,SE,125,0.0,0.0,89,0.00,,SCT019,0.00,VWS V14.01,2013-06-05 10:12:00,
2013-06-05 05:17:00,70.9,67.5,29.87,SE,125,0.0,0.0,89,0.00,,SCT019,0.00,VWS V14.01,2013-06-05 10:17:00,
2013-06-05 05:22:00,70.9,67.5,29.87,SE,125,0.0,0.0,89,0.00,,BKN019,0.00,VWS V14.01,2013-06-05 10:22:00,
2013-06-05 05:27:00,70.9,67.5,29.87,SE,125,0.0,0.0,89,0.00,,BKN019,0.00,VWS V14.01,2013-06-05 10:27:00,
2013-06-05 05:32:00,70.9,67.2,29.87,SE,125,0.0,0.0,88,0.00,,BKN019,0.00,VWS V14.01,2013-06-05 10:32:00,
2013-06-05 05:37:00,70.8,67.1,29.87,SE,125,0.0,0.0,88,0.00,,BKN019,0.00,VWS V14.01,2013-06-05 10:37:00,
2013-06-05 05:42:00,70.8,67.4,29.87,SE,125,0.0,0.0,89,0.00,,BKN019,0.00,VWS V14.01,2013-06-05 10:42:00,
2013-06-05 05:47:00,70.9,67.5,29.87,SE,125,0.0,0.0,89,0.00,,BKN019,0.00,VWS V14.01,2013-06-05 10:47:00,
2013-06-05 05:52:00,71.1,67.7,29.87,SE,125,0.0,0.0,89,0.00,,BKN019,0.00,VWS V14.01,2013-06-05 10:52:00,
2013-06-05 05:57:00,71.1,67.7,29.87,SE,125,0.0,0.0,89,0.00,,SCT021,0.00,VWS V14.01,2013-06-05 10:57:00,
2013-06-05 06:02:00,71.1,67.7,29.87,SE,125,0.0,0.0,89,0.00,,SCT021,0.00,VWS V14.01,2013-06-05 11:02:00,
2013-06-05 06:07:00,71.1,67.7,29.86,SE,125,0.0,0.0,89,0.00,,SCT021,0.00,VWS V14.01,2013-06-05 11:07:00,
2013-06-05 06:12:00,70.9,67.5,29.86,SE,125,0.0,0.0,89,0.00,,SCT021,0.00,VWS V14.01,2013-06-05 11:12:00,
2013-06-05 06:17:00,70.8,67.4,29.86,SE,125,0.0,0.0,89,0.00,,SCT021,0.00,VWS V14.01,2013-06-05 11:17:00,
2013-06-05 06:22:00,70.8,67.4,29.86,SE,125,0.0,0.0,89,0.00,,SCT021,0.00,VWS V14.01,2013-06-05 11:22:00,
2013-06-05 06:27:00,70.6,67.2,29.86,SE,125,0.0,0.0,89,0.00,,SCT021,0.00,VWS V14.01,2013-06-05 11:27:00,
2013-06-05 06:32:00,70.3,66.9,29.86,SE,125,0.0,0.0,89,0.00,,SCT021,0.00,VWS V14.01,2013-06-05 11:32:00,
2013-06-05 06:37:00,70.4,67.3,29.86,SE,125,0.0,0.0,90,0.00,,SCT021,0.00,VWS V14.01,2013-06-05 11:37:00,
2013-06-05 06:42:00,70.6,67.5,29.86,SE,125,0.0,0.0,90,0.00,,SCT021,0.00,VWS V14.01,2013-06-05 11:42:00,
2013-06-05 06:47:00,70.4,67.3,29.86,SE,125,0.0,0.0,90,0.00,,,0.00,VWS V14.01,2013-06-05 11:47:00,
2013-06-05 06:52:00,70.3,67.2,29.87,SE,125,0.0,0.0,90,0.00,,,0.00,VWS V14.01,2013-06-05 11:52:00,
2013-06-05 06:57:00,70.3,67.2,29.87,SE,125,0.0,0.0,90,0.00,,CLR,0.00,VWS V14.01,2013-06-05 11:57:00,
2013-06-05 07:02:00,70.3,67.2,29.87,SE,125,0.0,0.0,90,0.00,,CLR,0.00,VWS V14.01,2013-06-05 12:02:00,
2013-06-05 07:07:00,70.6,67.5,29.87,SE,125,1.0,2.0,90,0.00,,CLR,0.00,VWS V14.01,2013-06-05 12:07:00,
2013-06-05 07:12:00,70.8,67.7,29.87,SE,125,0.0,2.0,90,0.00,,CLR,0.00,VWS V14.01,2013-06-05 12:12:00,
2013-06-05 07:17:00,70.6,67.5,29.87,SE,125,0.0,0.0,90,0.00,,CLR,0.00,VWS V14.01,2013-06-05 12:17:00,
2013-06-05 07:22:00,70.6,67.5,29.87,SE,125,0.0,0.0,90,0.00,,CLR,0.00,VWS V14.01,2013-06-05 12:22:00,
2013-06-05 07:27:00,70.6,67.8,29.87,SE,125,0.0,0.0,91,0.00,,CLR,0.00,VWS V14.01,2013-06-05 12:27:00,
2013-06-05 07:32:00,70.9,68.2,29.87,SE,126,0.0,0.0,91,0.00,,CLR,0.00,VWS V14.01,2013-06-05 12:32:00,
2013-06-05 07:37:00,71.1,68.3,29.87,SE,126,0.0,0.0,91,0.00,,BKN017,0.00,VWS V14.01,2013-06-05 12:37:00,
2013-06-05 07:42:00,71.3,68.2,29.87,SE,126,0.0,0.0,90,0.00,,BKN017,0.00,VWS V14.01,2013-06-05 12:42:00,
2013-06-05 07:47:00,71.6,68.5,29.87,SE,126,0.0,0.0,90,0.00,,BKN017,0.00,VWS V14.01,2013-06-05 12:47:00,
2013-06-05 07:52:00,71.8,68.7,29.87,SE,126,0.0,0.0,90,0.00,,BKN017,0.00,VWS V14.01,2013-06-05 12:52:00,
2013-06-05 07:57:00,72.1,69.0,29.87,SE,126,0.0,0.0,90,0.00,,BKN020,0.00,VWS V14.01,2013-06-05 12:57:00,
2013-06-05 08:02:00,72.3,68.9,29.87,SE,126,0.0,0.0,89,0.00,,SCT016,0.00,VWS V14.01,2013-06-05 13:02:00,
2013-06-05 08:07:00,72.7,69.3,29.88,SE,126,0.0,0.0,89,0.00,,SCT016,0.00,VWS V14.01,2013-06-05 13:07:00,
2013-06-05 08:12:00,73.2,69.8,29.88,SE,126,0.0,0.0,89,0.00,,SCT016,0.00,VWS V14.01,2013-06-05 13:12:00,
2013-06-05 08:17:00,73.3,69.5,29.88,SE,126,0.0,0.0,88,0.00,,SCT016,0.00,VWS V14.01,2013-06-05 13:17:00,
2013-06-05 08:22:00,73.7,69.9,29.89,SE,130,0.0,0.0,88,0.00,,SCT016,0.00,VWS V14.01,2013-06-05 13:22:00,
2013-06-05 08:27:00,74.0,69.9,29.89,South,178,0.0,0.0,87,0.00,,SCT016,0.00,VWS V14.01,2013-06-05 13:27:00,
2013-06-05 08:32:00,74.2,70.1,29.89,South,184,0.0,0.0,87,0.00,,SCT016,0.00,VWS V14.01,2013-06-05 13:32:00,
2013-06-05 08:37:00,74.6,70.5,29.89,South,184,0.0,0.0,87,0.00,,SCT016,0.00,VWS V14.01,2013-06-05 13:37:00,
2013-06-05 08:42:00,74.9,70.8,29.89,South,184,0.0,0.0,87,0.00,,SCT016,0.00,VWS V14.01,2013-06-05 13:42:00,
2013-06-05 08:47:00,75.4,70.9,29.89,South,184,1.0,2.0,86,0.00,,SCT016,0.00,VWS V14.01,2013-06-05 13:47:00,
2013-06-05 08:52:00,76.0,71.2,29.89,SSE,159,0.0,2.0,85,0.00,,SCT016,0.00,VWS V14.01,2013-06-05 13:52:00,
2013-06-05 08:57:00,76.1,70.9,29.89,SSW,202,2.0,9.0,84,0.00,,SCT016,0.00,VWS V14.01,2013-06-05 13:57:00,
2013-06-05 09:02:00,76.5,71.0,29.89,South,176,4.0,9.0,83,0.00,,SCT016,0.00,VWS V14.01,2013-06-05 14:02:00,
2013-06-05 09:07:00,76.5,70.6,29.89,SSW,194,1.0,6.0,82,0.00,,SCT016,0.00,VWS V14.01,2013-06-05 14:07:00,
2013-06-05 09:12:00,76.7,70.8,29.89,SSE,150,0.0,7.0,82,0.00,,SCT016,0.00,VWS V14.01,2013-06-05 14:12:00,
2013-06-05 09:17:00,77.4,71.1,29.89,SE,143,0.0,2.0,81,0.00,,SCT016,0.00,VWS V14.01,2013-06-05 14:17:00,
2013-06-05 09:22:00,77.9,70.9,29.89,SW,234,1.0,6.0,79,0.00,,SCT016,0.00,VWS V14.01,2013-06-05 14:22:00,
2013-06-05 09:27:00,77.7,70.3,29.89,SSW,200,1.0,9.0,78,0.00,,SCT016,0.00,VWS V14.01,2013-06-05 14:27:00,
2013-06-05 09:32:00,77.6,69.8,29.89,South,171,1.0,11.0,77,0.00,,BKN015,0.00,VWS V14.01,2013-06-05 14:32:00,
2013-06-05 09:37:00,77.7,69.9,29.90,SSW,200,0.0,7.0,77,0.00,,BKN015,0.00,VWS V14.01,2013-06-05 14:37:00,
2013-06-05 09:42:00,78.6,70.0,29.90,SW,216,0.0,7.0,75,0.00,,BKN015,0.00,VWS V14.01,2013-06-05 14:42:00,
2013-06-05 09:47:00,78.8,69.4,29.90,SSW,201,0.0,11.0,73,0.00,,BKN015,0.00,VWS V14.01,2013-06-05 14:47:00,
2013-06-05 09:52:00,79.0,69.6,29.90,SSE,151,4.0,11.0,73,0.00,,BKN015,0.00,VWS V14.01,2013-06-05 14:52:00,
2013-06-05 09:57:00,79.6,69.8,29.90,South,171,0.0,7.0,72,0.00,,OVC022,0.00,VWS V14.01,2013-06-05 14:57:00,
2013-06-05 10:02:00,79.9,69.2,29.90,SSW,199,3.0,10.0,70,0.00,,OVC022,0.00,VWS V14.01,2013-06-05 15:02:00,
2013-06-05 10:07:00,80.1,69.4,29.90,South,178,4.0,6.0,70,0.00,,OVC022,0.00,VWS V14.01,2013-06-05 15:07:00,
2013-06-05 10:12:00,80.7,69.2,29.90,SSW,209,2.0,10.0,68,0.00,,OVC022,0.00,VWS V14.01,2013-06-05 15:12:00,
2013-06-05 10:17:00,80.7,68.3,29.90,SSW,192,0.0,10.0,66,0.00,,OVC022,0.00,VWS V14.01,2013-06-05 15:17:00,
2013-06-05 10:22:00,81.1,68.7,29.90,SSE,159,3.0,12.0,66,0.00,,OVC022,0.00,VWS V14.01,2013-06-05 15:22:00,
2013-06-05 10:27:00,81.2,68.3,29.90,South,183,3.0,11.0,65,0.00,,OVC022,0.00,VWS V14.01,2013-06-05 15:27:00,
2013-06-05 10:32:00,81.4,68.1,29.90,South,186,6.0,11.0,64,0.00,,OVC022,0.00,VWS V14.01,2013-06-05 15:32:00,
2013-06-05 10:37:00,81.6,68.2,29.89,South,184,1.0,7.0,64,0.00,,OVC022,0.00,VWS V14.01,2013-06-05 15:37:00,
2013-06-05 10:42:00,81.6,68.2,29.89,South,169,0.0,9.0,64,0.00,,OVC022,0.00,VWS V14.01,2013-06-05 15:42:00,
2013-06-05 10:47:00,81.4,67.1,29.89,South,188,0.0,6.0,62,0.00,,OVC022,0.00,VWS V14.01,2013-06-05 15:47:00,
2013-06-05 10:52:00,81.8,68.0,29.90,South,173,5.0,6.0,63,0.00,,OVC022,0.00,VWS V14.01,2013-06-05 15:52:00,
2013-06-05 10:57:00,82.4,68.6,29.90,SE,136,2.0,10.0,63,0.00,,BKN024,0.00,VWS V14.01,2013-06-05 15:57:00,
2013-06-05 11:02:00,82.6,69.2,29.90,SSE,168,0.0,10.0,64,0.00,,BKN024,0.00,VWS V14.01,2013-06-05 16:02:00,
2013-06-05 11:07:00,83.4,68.6,29.89,SSW,205,4.0,4.0,61,0.00,,BKN024,0.00,VWS V14.01,2013-06-05 16:07:00,
2013-06-05 11:12:00,83.8,68.9,29.89,South,190,1.0,6.0,61,0.00,,BKN024,0.00,VWS V14.01,2013-06-05 16:12:00,
2013-06-05 11:17:00,84.0,69.1,29.89,SSE,163,0.0,7.0,61,0.00,,BKN024,0.00,VWS V14.01,2013-06-05 16:17:00,
2013-06-05 11:22:00,84.3,68.9,29.89,SSW,198,0.0,11.0,60,0.00,,SCT026,0.00,VWS V14.01,2013-06-05 16:22:00,
2013-06-05 11:27:00,84.9,69.0,29.89,SSE,161,0.0,1.0,59,0.00,,SCT026,0.00,VWS V14.01,2013-06-05 16:27:00,
2013-06-05 11:32:00,85.1,68.7,29.89,SSE,155,4.0,6.0,58,0.00,,SCT026,0.00,VWS V14.01,2013-06-05 16:32:00,
2013-06-05 11:37:00,84.5,67.6,29.89,NNE,33,0.0,8.0,57,0.00,,SCT026,0.00,VWS V14.01,2013-06-05 16:37:00,
2013-06-05 11:42:00,84.9,66.9,29.89,South,189,4.0,8.0,55,0.00,,SCT026,0.00,VWS V14.01,2013-06-05 16:42:00,
2013-06-05 11:47:00,84.9,66.9,29.89,SSW,198,3.0,9.0,55,0.00,,SCT026,0.00,VWS V14.01,2013-06-05 16:47:00,
2013-06-05 11:52:00,85.5,67.0,29.89,South,181,0.0,9.0,54,0.00,,SCT026,0.00,VWS V14.01,2013-06-05 16:52:00,
2013-06-05 11:57:00,85.3,67.3,29.89,SW,216,1.0,7.0,55,0.00,,CLR,0.00,VWS V14.01,2013-06-05 16:57:00,
2013-06-05 12:02:00,85.3,67.8,29.89,SSW,198,0.0,7.0,56,0.00,,CLR,0.00,VWS V14.01,2013-06-05 17:02:00,
2013-06-05 12:07:00,85.9,67.3,29.89,South,172,1.0,6.0,54,0.00,,CLR,0.00,VWS V14.01,2013-06-05 17:07:00,
2013-06-05 12:12:00,85.9,67.9,29.89,East,94,0.0,8.0,55,0.00,,CLR,0.00,VWS V14.01,2013-06-05 17:12:00,
2013-06-05 12:17:00,86.3,68.2,29.89,SSW,196,0.0,10.0,55,0.00,,CLR,0.00,VWS V14.01,2013-06-05 17:17:00,
2013-06-05 12:22:00,86.5,67.3,29.89,East,98,4.0,10.0,53,0.00,,CLR,0.00,VWS V14.01,2013-06-05 17:22:00,
2013-06-05 12:27:00,87.0,67.8,29.89,SSE,159,0.0,4.0,53,0.00,,CLR,0.00,VWS V14.01,2013-06-05 17:27:00,
2013-06-05 12:32:00,87.0,67.8,29.89,South,181,0.0,9.0,53,0.00,,CLR,0.00,VWS V14.01,2013-06-05 17:32:00,
2013-06-05 12:37:00,87.2,68.0,29.88,ESE,123,0.0,6.0,53,0.00,,CLR,0.00,VWS V14.01,2013-06-05 17:37:00,
2013-06-05 12:42:00,88.0,68.2,29.88,SW,219,3.0,9.0,52,0.00,,CLR,0.00,VWS V14.01,2013-06-05 17:42:00,
2013-06-05 12:47:00,88.0,67.1,29.88,South,186,0.0,5.0,50,0.00,,CLR,0.00,VWS V14.01,2013-06-05 17:47:00,
2013-06-05 12:52:00,88.2,66.7,29.88,ESE,122,6.0,13.0,49,0.00,,CLR,0.00,VWS V14.01,2013-06-05 17:52:00,
2013-06-05 12:57:00,88.2,67.2,29.88,SE,139,3.0,13.0,50,0.00,,CLR,0.00,VWS V14.01,2013-06-05 17:57:00,
2013-06-05 13:02:00,88.4,65.6,29.88,ESE,117,3.0,13.0,47,0.00,,CLR,0.00,VWS V14.01,2013-06-05 18:02:00,
2013-06-05 13:07:00,88.6,66.4,29.87,ESE,123,0.0,6.0,48,0.00,,CLR,0.00,VWS V14.01,2013-06-05 18:07:00,
2013-06-05 13:12:00,89.3,67.1,29.87,ESE,109,4.0,11.0,48,0.00,,CLR,0.00,VWS V14.01,2013-06-05 18:12:00,
2013-06-05 13:17:00,88.8,66.6,29.87,SE,125,0.0,12.0,48,0.00,,CLR,0.00,VWS V14.01,2013-06-05 18:17:00,
2013-06-05 13:22:00,89.0,67.4,29.87,ESE,107,0.0,12.0,49,0.00,,CLR,0.00,VWS V14.01,2013-06-05 18:22:00,
2013-06-05 13:27:00,89.7,65.6,29.87,SE,134,1.0,12.0,45,0.00,,CLR,0.00,VWS V14.01,2013-06-05 18:27:00,
2013-06-05 13:32:00,89.5,66.0,29.87,SE,138,0.0,12.0,46,0.00,,CLR,0.00,VWS V14.01,2013-06-05 18:32:00,
2013-06-05 13:37:00,90.1,65.9,29.87,SE,146,0.0,7.0,45,0.00,,CLR,0.00,VWS V14.01,2013-06-05 18:37:00,
2013-06-05 13:42:00,89.9,65.1,29.87,ESE,111,3.0,9.0,44,0.00,,CLR,0.00,VWS V14.01,2013-06-05 18:42:00,
2013-06-05 13:47:00,90.3,66.1,29.87,South,169,2.0,4.0,45,0.00,,CLR,0.00,VWS V14.01,2013-06-05 18:47:00,
2013-06-05 13:52:00,90.7,65.8,29.86,SE,146,1.0,7.0,44,0.00,,CLR,0.00,VWS V14.01,2013-06-05 18:52:00,
2013-06-05 13:57:00,90.7,63.8,29.86,SE,130,4.0,9.0,41,0.00,,CLR,0.00,VWS V14.01,2013-06-05 18:57:00,
2013-06-05 14:02:00,90.7,64.5,29.86,SSE,159,2.0,9.0,42,0.00,,CLR,0.00,VWS V14.01,2013-06-05 19:02:00,
2013-06-05 14:07:00,91.0,64.1,29.86,SSE,155,4.0,10.0,41,0.00,,CLR,0.00,VWS V14.01,2013-06-05 19:07:00,
2013-06-05 14:12:00,91.4,63.0,29.86,ESE,113,0.0,10.0,39,0.00,,CLR,0.00,VWS V14.01,2013-06-05 19:12:00,
2013-06-05 14:17:00,91.8,63.3,29.86,SE,146,0.0,9.0,39,0.00,,CLR,0.00,VWS V14.01,2013-06-05 19:17:00,
2013-06-05 14:22:00,91.8,62.6,29.87,South,169,1.0,9.0,38,0.00,,CLR,0.00,VWS V14.01,2013-06-05 19:22:00,
2013-06-05 14:27:00,92.1,63.6,29.87,SSE,160,1.0,9.0,39,0.00,,CLR,0.00,VWS V14.01,2013-06-05 19:27:00,
2013-06-05 14:32:00,92.7,63.4,29.87,SE,138,0.0,9.0,38,0.00,,CLR,0.00,VWS V14.01,2013-06-05 19:32:00,
2013-06-05 14:37:00,93.8,63.6,29.87,ESE,117,0.0,0.0,37,0.00,,CLR,0.00,VWS V14.01,2013-06-05 19:37:00,
2013-06-05 14:42:00,94.0,62.2,29.87,South,188,0.0,7.0,35,0.00,,CLR,0.00,VWS V14.01,2013-06-05 19:42:00,
2013-06-05 14:47:00,93.6,64.2,29.87,SSW,197,0.0,4.0,38,0.00,,CLR,0.00,VWS V14.01,2013-06-05 19:47:00,
2013-06-05 14:52:00,93.6,64.2,29.87,ESE,115,0.0,4.0,38,0.00,,CLR,0.00,VWS V14.01,2013-06-05 19:52:00,
2013-06-05 14:57:00,93.6,64.2,29.87,South,183,0.0,6.0,38,0.00,,CLR,0.00,VWS V14.01,2013-06-05 19:57:00,
2013-06-05 15:02:00,93.2,64.6,29.87,SE,140,2.0,7.0,39,0.00,,CLR,0.00,VWS V14.01,2013-06-05 20:02:00,
2013-06-05 15:07:00,93.2,65.3,29.86,ESE,123,3.0,7.0,40,0.00,,CLR,0.00,VWS V14.01,2013-06-05 20:07:00,
2013-06-05 15:12:00,93.6,64.9,29.86,South,176,0.0,7.0,39,0.00,,CLR,0.00,VWS V14.01,2013-06-05 20:12:00,
2013-06-05 15:17:00,93.8,65.1,29.86,SE,132,2.0,5.0,39,0.00,,CLR,0.00,VWS V14.01,2013-06-05 20:17:00,
2013-06-05 15:22:00,93.8,64.4,29.87,East,98,0.0,5.0,38,0.00,,CLR,0.00,VWS V14.01,2013-06-05 20:22:00,
2013-06-05 15:27:00,94.0,63.8,29.87,South,179,0.0,5.0,37,0.00,,CLR,0.00,VWS V14.01,2013-06-05 20:27:00,
2013-06-05 15:32:00,94.0,61.4,29.87,ESE,111,7.0,9.0,34,0.00,,CLR,0.00,VWS V14.01,2013-06-05 20:32:00,
2013-06-05 15:37:00,94.3,59.9,29.87,SE,129,1.0,7.0,32,0.00,,CLR,0.00,VWS V14.01,2013-06-05 20:37:00,
2013-06-05 15:42:00,94.5,61.0,29.87,East,90,0.0,7.0,33,0.00,,CLR,0.00,VWS V14.01,2013-06-05 20:42:00,
2013-06-05 15:47:00,94.3,61.7,29.87,SE,133,4.0,4.0,34,0.00,,CLR,0.00,VWS V14.01,2013-06-05 20:47:00,
2013-06-05 15:52:00,94.9,61.3,29.86,SSE,167,0.0,5.0,33,0.00,,CLR,0.00,VWS V14.01,2013-06-05 20:52:00,
2013-06-05 15:57:00,95.4,62.6,29.86,ESE,102,2.0,5.0,34,0.00,,CLR,0.00,VWS V14.01,2013-06-05 20:57:00,
2013-06-05 16:02:00,95.1,63.2,29.86,ESE,109,0.0,7.0,35,0.00,,CLR,0.00,VWS V14.01,2013-06-05 21:02:00,
2013-06-05 16:07:00,95.4,63.4,29.85,East,89,3.0,8.0,35,0.00,,CLR,0.00,VWS V14.01,2013-06-05 21:07:00,
2013-06-05 16:12:00,95.4,64.2,29.85,SSE,161,6.0,8.0,36,0.00,,CLR,0.00,VWS V14.01,2013-06-05 21:12:00,
2013-06-05 16:17:00,94.5,62.6,29.85,SSE,162,6.0,10.0,35,0.00,,CLR,0.00,VWS V14.01,2013-06-05 21:17:00,
2013-06-05 16:22:00,94.3,61.7,29.84,ESE,109,2.0,12.0,34,0.00,,CLR,0.00,VWS V14.01,2013-06-05 21:22:00,
2013-06-05 16:27:00,94.5,62.6,29.84,South,183,0.0,9.0,35,0.00,,CLR,0.00,VWS V14.01,2013-06-05 21:27:00,
2013-06-05 16:32:00,94.9,63.0,29.84,ESE,117,0.0,9.0,35,0.00,,CLR,0.00,VWS V14.01,2013-06-05 21:32:00,
2013-06-05 16:37:00,95.1,60.6,29.83,SSE,157,4.0,11.0,32,0.00,,CLR,0.00,VWS V14.01,2013-06-05 21:37:00,
2013-06-05 16:42:00,94.9,61.3,29.83,SE,127,4.0,11.0,33,0.00,,CLR,0.00,VWS V14.01,2013-06-05 21:42:00,
2013-06-05 16:47:00,95.1,61.5,29.83,East,83,0.0,6.0,33,0.00,,CLR,0.00,VWS V14.01,2013-06-05 21:47:00,
2013-06-05 16:52:00,95.9,61.3,29.82,ESE,114,0.0,6.0,32,0.00,,CLR,0.00,VWS V14.01,2013-06-05 21:52:00,
2013-06-05 16:57:00,95.6,61.1,29.82,South,176,5.0,6.0,32,0.00,,CLR,0.00,VWS V14.01,2013-06-05 21:57:00,
2013-06-05 17:02:00,95.6,61.1,29.82,ESE,110,0.0,7.0,32,0.00,,CLR,0.00,VWS V14.01,2013-06-05 22:02:00,
2013-06-05 17:07:00,95.9,62.2,29.81,SE,141,4.0,7.0,33,0.00,,CLR,0.00,VWS V14.01,2013-06-05 22:07:00,
2013-06-05 17:12:00,95.6,61.9,29.81,SE,133,5.0,7.0,33,0.00,,CLR,0.00,VWS V14.01,2013-06-05 22:12:00,
2013-06-05 17:17:00,94.9,63.0,29.81,ESE,108,3.0,7.0,35,0.00,,CLR,0.00,VWS V14.01,2013-06-05 22:17:00,
2013-06-05 17:22:00,94.5,63.4,29.81,ESE,116,2.0,12.0,36,0.00,,CLR,0.00,VWS V14.01,2013-06-05 22:22:00,
2013-06-05 17:27:00,94.9,63.8,29.81,ESE,112,0.0,3.0,36,0.00,,CLR,0.00,VWS V14.01,2013-06-05 22:27:00,
2013-06-05 17:32:00,95.4,63.4,29.81,East,84,0.0,6.0,35,0.00,,CLR,0.00,VWS V14.01,2013-06-05 22:32:00,
2013-06-05 17:37:00,95.9,63.9,29.80,SE,133,0.0,7.0,35,0.00,,CLR,0.00,VWS V14.01,2013-06-05 22:37:00,
2013-06-05 17:42:00,95.6,64.4,29.80,SE,136,4.0,7.0,36,0.00,,CLR,0.00,VWS V14.01,2013-06-05 22:42:00,
2013-06-05 17:47:00,95.1,65.5,29.80,South,177,3.0,7.0,38,0.00,,CLR,0.00,VWS V14.01,2013-06-05 22:47:00,
2013-06-05 17:52:00,95.1,64.8,29.79,East,96,6.0,10.0,37,0.00,,CLR,0.00,VWS V14.01,2013-06-05 22:52:00,
2013-06-05 17:57:00,95.1,64.0,29.79,ESE,119,3.0,10.0,36,0.00,,CLR,0.00,VWS V14.01,2013-06-05 22:57:00,
2013-06-05 18:02:00,94.9,64.6,29.79,SE,143,3.0,10.0,37,0.00,,CLR,0.00,VWS V14.01,2013-06-05 23:02:00,
2013-06-05 18:07:00,94.9,65.3,29.79,ESE,105,6.0,12.0,38,0.00,,CLR,0.00,VWS V14.01,2013-06-05 23:07:00,
2013-06-05 18:12:00,94.3,65.6,29.79,East,93,1.0,12.0,39,0.00,,CLR,0.00,VWS V14.01,2013-06-05 23:12:00,
2013-06-05 18:17:00,93.8,65.8,29.79,ESE,105,0.0,12.0,40,0.00,,CLR,0.00,VWS V14.01,2013-06-05 23:17:00,
2013-06-05 18:22:00,94.3,66.3,29.78,SE,143,2.0,12.0,40,0.00,,CLR,0.00,VWS V14.01,2013-06-05 23:22:00,
2013-06-05 18:27:00,93.8,65.8,29.78,SE,131,4.0,11.0,40,0.00,,CLR,0.00,VWS V14.01,2013-06-05 23:27:00,
2013-06-05 18:32:00,93.4,65.5,29.78,SE,126,4.0,17.0,40,0.00,,CLR,0.00,VWS V14.01,2013-06-05 23:32:00,
2013-06-05 18:37:00,93.4,65.5,29.77,SE,130,4.0,7.0,40,0.00,,CLR,0.00,VWS V14.01,2013-06-05 23:37:00,
2013-06-05 18:42:00,93.4,65.5,29.77,SE,135,3.0,16.0,40,0.00,,CLR,0.00,VWS V14.01,2013-06-05 23:42:00,
2013-06-05 18:47:00,92.9,65.0,29.77,ESE,117,12.0,13.0,40,0.00,,CLR,0.00,VWS V14.01,2013-06-05 23:47:00,
2013-06-05 18:52:00,92.5,65.4,29.76,ESE,111,4.0,13.0,41,0.00,,CLR,0.00,VWS V14.01,2013-06-05 23:52:00,
2013-06-05 18:57:00,92.5,65.4,29.76,SSE,166,10.0,11.0,41,0.00,,CLR,0.00,VWS V14.01,2013-06-05 23:57:00,
2013-06-05 19:02:00,92.3,65.2,29.76,SE,138,7.0,12.0,41,0.00,,CLR,0.00,VWS V14.01,2013-06-06 00:02:00,
2013-06-05 19:07:00,92.1,64.3,29.75,SE,125,17.0,17.0,40,0.00,,CLR,0.00,VWS V14.01,2013-06-06 00:07:00,
2013-06-05 19:12:00,91.6,64.6,29.75,SSE,149,5.0,17.0,41,0.00,,CLR,0.00,VWS V14.01,2013-06-06 00:12:00,
2013-06-05 19:17:00,91.4,65.1,29.75,SE,140,0.0,10.0,42,0.00,,CLR,0.00,VWS V14.01,2013-06-06 00:17:00,
2013-06-05 19:22:00,91.4,64.4,29.75,SE,128,0.0,12.0,41,0.00,,CLR,0.00,VWS V14.01,2013-06-06 00:22:00,
2013-06-05 19:27:00,91.2,64.2,29.75,ESE,117,7.0,12.0,41,0.00,,CLR,0.00,VWS V14.01,2013-06-06 00:27:00,
2013-06-05 19:32:00,91.2,64.2,29.75,SE,126,4.0,12.0,41,0.00,,CLR,0.00,VWS V14.01,2013-06-06 00:32:00,
2013-06-05 19:37:00,91.0,64.1,29.75,ESE,113,3.0,8.0,41,0.00,,CLR,0.00,VWS V14.01,2013-06-06 00:37:00,
2013-06-05 19:42:00,90.7,64.5,29.75,SE,134,5.0,8.0,42,0.00,,CLR,0.00,VWS V14.01,2013-06-06 00:42:00,
2013-06-05 19:47:00,90.3,64.8,29.75,SE,146,0.0,6.0,43,0.00,,CLR,0.00,VWS V14.01,2013-06-06 00:47:00,
2013-06-05 19:52:00,89.9,64.4,29.75,ESE,107,4.0,6.0,43,0.00,,CLR,0.00,VWS V14.01,2013-06-06 00:52:00,
2013-06-05 19:57:00,89.7,64.9,29.75,ESE,118,0.0,1.0,44,0.00,,CLR,0.00,VWS V14.01,2013-06-06 00:57:00,
2013-06-05 20:02:00,89.5,64.7,29.75,East,100,1.0,5.0,44,0.00,,CLR,0.00,VWS V14.01,2013-06-06 01:02:00,
2013-06-05 20:07:00,89.3,65.2,29.75,SE,127,1.0,3.0,45,0.00,,CLR,0.00,VWS V14.01,2013-06-06 01:07:00,
2013-06-05 20:12:00,89.0,64.9,29.75,SE,124,3.0,6.0,45,0.00,,CLR,0.00,VWS V14.01,2013-06-06 01:12:00,
2013-06-05 20:17:00,88.8,65.4,29.75,SSE,149,0.0,4.0,46,0.00,,CLR,0.00,VWS V14.01,2013-06-06 01:17:00,
2013-06-05 20:22:00,88.6,66.4,29.76,SE,134,2.0,9.0,48,0.00,,CLR,0.00,VWS V14.01,2013-06-06 01:22:00,
2013-06-05 20:27:00,88.4,66.2,29.76,South,169,1.0,6.0,48,0.00,,CLR,0.00,VWS V14.01,2013-06-06 01:27:00,
2013-06-05 20:32:00,88.2,66.7,29.76,SE,143,0.0,6.0,49,0.00,,CLR,0.00,VWS V14.01,2013-06-06 01:32:00,
2013-06-05 20:37:00,88.0,67.1,29.76,SE,126,0.0,2.0,50,0.00,,CLR,0.00,VWS V14.01,2013-06-06 01:37:00,
2013-06-05 20:42:00,88.0,67.6,29.76,SSE,152,0.0,4.0,51,0.00,,CLR,0.00,VWS V14.01,2013-06-06 01:42:00,
2013-06-05 20:47:00,87.8,68.0,29.76,SE,130,0.0,0.0,52,0.00,,CLR,0.00,VWS V14.01,2013-06-06 01:47:00,
2013-06-05 20:52:00,87.6,67.8,29.78,SE,146,0.0,0.0,52,0.00,,CLR,0.00,VWS V14.01,2013-06-06 01:52:00,
2013-06-05 20:57:00,87.4,68.2,29.78,SSE,155,0.0,0.0,53,0.00,,CLR,0.00,VWS V14.01,2013-06-06 01:57:00,
2013-06-05 21:02:00,87.2,68.0,29.78,ESE,119,0.0,2.0,53,0.00,,CLR,0.00,VWS V14.01,2013-06-06 02:02:00,
2013-06-05 21:07:00,87.0,68.4,29.78,East,96,3.0,9.0,54,0.00,,CLR,0.00,VWS V14.01,2013-06-06 02:07:00,
2013-06-05 21:12:00,86.7,68.6,29.78,SE,141,0.0,9.0,55,0.00,,CLR,0.00,VWS V14.01,2013-06-06 02:12:00,
2013-06-05 21:17:00,86.5,69.0,29.78,SE,138,2.0,3.0,56,0.00,,CLR,0.00,VWS V14.01,2013-06-06 02:17:00,
2013-06-05 21:22:00,86.3,69.3,29.79,SSE,154,0.0,3.0,57,0.00,,CLR,0.00,VWS V14.01,2013-06-06 02:22:00,
2013-06-05 21:27:00,85.9,68.9,29.79,South,169,6.0,6.0,57,0.00,,CLR,0.00,VWS V14.01,2013-06-06 02:27:00,
2013-06-05 21:32:00,85.7,69.2,29.79,ESE,110,0.0,6.0,58,0.00,,CLR,0.00,VWS V14.01,2013-06-06 02:32:00,
2013-06-05 21:37:00,85.3,69.4,29.79,SE,132,3.0,10.0,59,0.00,,CLR,0.00,VWS V14.01,2013-06-06 02:37:00,
2013-06-05 21:42:00,85.3,69.4,29.79,SE,134,2.0,10.0,59,0.00,,CLR,0.00,VWS V14.01,2013-06-06 02:42:00,
2013-06-05 21:47:00,84.9,69.5,29.79,South,169,4.0,7.0,60,0.00,,CLR,0.00,VWS V14.01,2013-06-06 02:47:00,
2013-06-05 21:52:00,84.7,69.3,29.80,SSE,148,3.0,11.0,60,0.00,,CLR,0.00,VWS V14.01,2013-06-06 02:52:00,
2013-06-05 21:57:00,84.5,69.6,29.80,SE,135,4.0,5.0,61,0.00,,CLR,0.00,VWS V14.01,2013-06-06 02:57:00,
2013-06-05 22:02:00,84.3,69.4,29.80,SSE,153,0.0,7.0,61,0.00,,CLR,0.00,VWS V14.01,2013-06-06 03:02:00,
2013-06-05 22:07:00,84.1,69.2,29.80,SE,144,3.0,5.0,61,0.00,,CLR,0.00,VWS V14.01,2013-06-06 03:07:00,
2013-06-05 22:12:00,84.0,69.6,29.80,SSE,147,0.0,6.0,62,0.00,,CLR,0.00,VWS V14.01,2013-06-06 03:12:00,
2013-06-05 22:17:00,83.8,69.9,29.80,SSE,157,0.0,6.0,63,0.00,,CLR,0.00,VWS V14.01,2013-06-06 03:17:00,
2013-06-05 22:22:00,83.4,69.5,29.80,SSE,154,3.0,7.0,63,0.00,,CLR,0.00,VWS V14.01,2013-06-06 03:22:00,
2013-06-05 22:27:00,83.2,69.3,29.80,SSE,150,0.0,4.0,63,0.00,,CLR,0.00,VWS V14.01,2013-06-06 03:27:00,
2013-06-05 22:32:00,83.0,69.6,29.80,South,171,0.0,7.0,64,0.00,,CLR,0.00,VWS V14.01,2013-06-06 03:32:00,
2013-06-05 22:37:00,82.8,69.4,29.80,SSE,155,2.0,6.0,64,0.00,,CLR,0.00,VWS V14.01,2013-06-06 03:37:00,
2013-06-05 22:42:00,82.6,69.2,29.80,South,169,0.0,6.0,64,0.00,,CLR,0.00,VWS V14.01,2013-06-06 03:42:00,
2013-06-05 22:47:00,82.4,69.0,29.80,SSE,161,0.0,0.0,64,0.00,,CLR,0.00,VWS V14.01,2013-06-06 03:47:00,
2013-06-05 22:52:00,82.2,69.3,29.81,SSE,161,0.0,0.0,65,0.00,,CLR,0.00,VWS V14.01,2013-06-06 03:52:00,
2013-06-05 22:57:00,82.0,69.1,29.81,SSE,164,0.0,5.0,65,0.00,,CLR,0.00,VWS V14.01,2013-06-06 03:57:00,
2013-06-05 23:01:00,81.8,69.3,29.81,SSE,164,0.0,5.0,66,0.00,,CLR,0.00,VWS V14.01,2013-06-06 04:01:00,
2013-06-05 23:07:00,81.6,69.2,29.81,South,172,1.0,4.0,66,0.00,,CLR,0.00,VWS V14.01,2013-06-06 04:07:00,
2013-06-05 23:12:00,81.4,69.0,29.81,South,170,0.0,4.0,66,0.00,,CLR,0.00,VWS V14.01,2013-06-06 04:12:00,
2013-06-05 23:17:00,81.2,69.2,29.81,ESE,103,0.0,1.0,67,0.00,,CLR,0.00,VWS V14.01,2013-06-06 04:17:00,
2013-06-05 23:22:00,81.1,69.1,29.82,SSE,155,0.0,1.0,67,0.00,,CLR,0.00,VWS V14.01,2013-06-06 04:22:00,
2013-06-05 23:27:00,80.9,68.9,29.82,SSE,151,5.0,5.0,67,0.00,,CLR,0.00,VWS V14.01,2013-06-06 04:27:00,
2013-06-05 23:32:00,80.7,69.2,29.82,SSE,155,0.0,5.0,68,0.00,,CLR,0.00,VWS V14.01,2013-06-06 04:32:00,
2013-06-05 23:37:00,80.5,69.0,29.82,SSE,151,0.0,2.0,68,0.00,,CLR,0.00,VWS V14.01,2013-06-06 04:37:00,
2013-06-05 23:42:00,80.3,69.2,29.82,SSE,157,0.0,3.0,69,0.00,,CLR,0.00,VWS V14.01,2013-06-06 04:42:00,
2013-06-05 23:47:00,80.1,69.0,29.82,SSE,158,0.0,0.0,69,0.00,,CLR,0.00,VWS V14.01,2013-06-06 04:47:00,
2013-06-05 23:52:00,79.9,68.8,29.83,SSE,158,0.0,0.0,69,0.00,,CLR,0.00,VWS V14.01,2013-06-06 04:52:00,
2013-06-05 23:57:00,79.8,69.2,29.83,SSE,158,0.0,0.0,70,0.00,,CLR,0.00,VWS V14.01,2013-06-06 04:57:00,